STARLINK-30505, 57972

Orbit data source: Space-Track

STARLINK-30505, 57972 is a payload satellite owned by SpaceX/Seattle (US) in LEO that was launched on Sat, 30 Sep 2023 UTC via an FALCON 9 launch vehicle from the Air Force Eastern Test Range (AFETR). Payload-class satellites include a variety of spacecraft equipped with specific instruments for various scientific and technological missions. These include communications satellites like Starlink; space stations such as the ISS; scientific satellites like the Hubble; Earth observation satellites from companies like Planet Labs, Umbra, and HawkEye 360; GPS; miniature CubeSats for education and research; and military/defense satellites.

Loading next visibility...
Identifier
57972, 2023-151J
Orbit
LEO
Country
Flag of USUS
Related business
Manufacturer
SpaceX/Seattle
Mission
Operational Commercial Communications
Bus & Motor
STARLINK V2M, Unknown motor
Mass
730 kg wet, ~700 kg dry
Launch date (UTC)
2023-09-30 (3 years ago)
Launch vehicle
FALCON 9
Launch site
Air Force Eastern Test Range (AFETR)
Object type
Payload
Rocket body
Debris
Shape & HBR
Box + 2 Pan, 17.7 m
Radar Cross Section
33.884 m², Large (>1 m²)

Expand to show TLE details & history
Last TLE update: 1 day ago

TLE from 1 day ago
0 STARLINK-30505
1 57972U 23151J   26175.07581951  .00008127  00000-0  30464-3 0  9997
2 57972  42.9994  95.4453 0001331 266.7164  93.3535 15.27567635152035
Epoch: 2026-06-24T01:49Z
TLE epoch observation values (Epoch: 2026-06-24T01:49:10.805Z)
Latitude
-0.00005°
Longitude
155.91199°
Altitude
482.915 km
Speed
7.626 km/s
True Right ascension
06h 21m 46s
True Declination
0° 00' 00"
Sunlit
Object was in daylight at epoch
Visualization orbit readout
Latitude
Unknown
Longitude
Unknown
Altitude
Unknown
Speed
Unknown
Apparent Right ascension
Unknown
Apparent Declination
Unknown
Sunlit
N/A
Visualization observer readout
Local Sidereal Time
15:07:05
Azimuth
Unknown
Elevation
Unknown
Doppler factor
Unknown
Orbital elements
Apogee altitude
485.945 km
Perigee altitude
484.118 km
Semi-major axis
6,863.168 km
Eccentricity
0.00013
Inclination
42.9994°
RAAN
95.4453°
Arg. of periapsis
266.7164°
True anomaly
93.36873°
Mean anomaly
93.3535°
Eccentric anomaly
93.36111°
Mean motion
3.8173 °/min
Orbital period
94.31 mins
BSTAR
0.00030464
Loading maneuver chart data...
Computing Atmospheric mass density...
Loading historical data...
Loading historical data...
Loading historical data...
Loading historical data...
Loading historical data...
Loading historical data...
Loading historical data...

Documentation

Showing up to 5 results
|